Location: Augirein
(42.9320°N, 0.9181°E)
Time: 22:19:34
(UTC+00:00)

Tiangong - Pass Details

Date: 03 October 2021
Orbit: 382 x 385 km, 41.5° (Epoch: 19 October)

Event Time Altitude Azimuth Distance (km) Brightness Sun altitude
Exits shadow 05:02:09 17° 265° (W) 1,047 2.6 -10.7°
Maximum altitude 05:04:21 55° 190° (S) 462 1.3 -10.3°
Drops below altitude 10° 05:07:26 10° 112° (ESE) 1,393 5.0 -9.7°
Sets 05:09:31 0° 108° (ESE) 2,244 6.5 -9.3°
